TimeCST,TemperatureF,Dew PointF,Humidity,Sea Level PressureIn,VisibilityMPH,Wind Direction,Wind SpeedMPH,Gust SpeedMPH,PrecipitationIn,Events,Conditions,WindDirDegrees,DateUTC
12:53 AM,30.9,25.0,79,30.25,10.0,SSW,4.6,-,N/A,,Overcast,210,2013-02-17 06:53:00
1:53 AM,32.0,24.1,73,30.24,10.0,SSW,8.1,-,N/A,,Overcast,210,2013-02-17 07:53:00
2:53 AM,33.1,24.1,70,30.24,10.0,SW,9.2,-,N/A,,Overcast,220,2013-02-17 08:53:00
3:53 AM,33.1,25.0,72,30.23,10.0,SSW,6.9,-,N/A,,Overcast,210,2013-02-17 09:53:00
4:53 AM,34.0,24.1,67,30.24,10.0,SW,8.1,-,N/A,,Overcast,220,2013-02-17 10:53:00
5:53 AM,33.1,25.0,72,30.25,10.0,SSW,5.8,-,N/A,,Overcast,210,2013-02-17 11:53:00
7:53 AM,35.1,25.0,67,30.26,10.0,South,6.9,-,N/A,,Overcast,190,2013-02-17 13:53:00
8:53 AM,37.0,24.1,59,30.26,10.0,South,9.2,-,N/A,,Overcast,190,2013-02-17 14:53:00
9:53 AM,39.0,24.1,55,30.26,10.0,South,12.7,-,N/A,,Overcast,190,2013-02-17 15:53:00
10:53 AM,44.1,24.1,45,30.25,10.0,South,13.8,-,N/A,,Partly Cloudy,190,2013-02-17 16:53:00
11:53 AM,48.0,24.1,39,30.21,10.0,SW,13.8,-,N/A,,Clear,220,2013-02-17 17:53:00
12:53 PM,50.0,25.0,38,30.18,10.0,SW,12.7,20.7,N/A,,Clear,220,2013-02-17 18:53:00
1:53 PM,51.1,26.1,38,30.14,10.0,SSW,16.1,21.9,N/A,,Clear,210,2013-02-17 19:53:00
2:53 PM,52.0,26.1,37,30.13,10.0,South,8.1,-,N/A,,Clear,190,2013-02-17 20:53:00
3:53 PM,53.1,25.0,34,30.10,10.0,South,12.7,-,N/A,,Clear,190,2013-02-17 21:53:00
4:53 PM,52.0,26.1,37,30.09,10.0,South,11.5,-,N/A,,Clear,180,2013-02-17 22:53:00
5:53 PM,48.0,28.9,48,30.09,10.0,South,8.1,-,N/A,,Clear,170,2013-02-17 23:53:00
6:53 PM,46.9,28.0,48,30.09,10.0,South,8.1,-,N/A,,Clear,170,2013-02-18 00:53:00
7:53 PM,44.1,28.0,53,30.09,10.0,South,8.1,-,N/A,,Clear,170,2013-02-18 01:53:00
8:53 PM,43.0,28.9,58,30.09,10.0,SSE,8.1,-,N/A,,Clear,160,2013-02-18 02:53:00
9:53 PM,43.0,28.0,56,30.08,10.0,SSE,11.5,-,N/A,,Clear,160,2013-02-18 03:53:00
11:53 PM,43.0,28.9,58,30.05,10.0,South,12.7,-,N/A,,Clear,170,2013-02-18 05:53:00